Regional Weather Roundup
Issued by NWS Jackson, KY

Home | Current Version | Previous Version | Graphics & Text | Print | Product List | Glossary On
Versions: 1 2 3 4 5 6 7 8 9 10 11 12 13 14 15 16 17 18 19 20 21 22 23 24 25 26 27 28 29 30 31 32 33 34 35 36 37 38 39 40 41 42 43 44 45 46 47 48 49 50
000
ASUS43 KJKL 270610
RWRJKL

EAST KENTUCKY HOURLY WEATHER ROUNDUP
NATIONAL WEATHER SERVICE JACKSON KY
200 AM EDT FRI MAR 27 2015

NOTE: "FAIR" INDICATES FEW OR NO CLOUDS BELOW 12,000 FEET WITH
NO SIGNIFICANT WEATHER AND/OR OBSTRUCTIONS TO VISIBILITY.

* THESE REPORTS ARE NOT UNDER NWS QUALITY CONTROL AND MAY NOT
  REPORT WEATHER SUCH AS PRECIPITATION AND FOG.

KYZ079-080-083-085-087-088-110-112-115-119-120-270700
...EASTERN KENTUCKY...

CITY           SKY/WX    TMP DP  RH WIND       PRES   REMARKS
JACKSON        CLOUDY    39  37  92 VRB6      29.94F WCI  35
6HR MIN TEMP:  39; 6HR MAX TEMP:  44; 6HR PCP:  0.16;

LONDON         CLOUDY    41  35  79 N6        29.93F
6HR MIN TEMP:  41; 6HR MAX TEMP:  46; 6HR PCP:  0.32;

SOMERSET*      CLOUDY    39  34  81 NE8       29.97F WCI  34
MONTICELLO*    CLOUDY    42  39  89 N12       29.98F
6HR MIN TEMP:  42; 6HR MAX TEMP:  45; 6HR PCP:  0.11;

MIDDLESBORO*   LGT RAIN  41  38  91 N7        29.93F
6HR MIN TEMP:  41; 6HR MAX TEMP:  48; 6HR PCP:  0.22;

BLACK MTN*       N/A     30  32 100 N9          N/A  WCI  22
PIKEVILLE APT* RAIN      37  37 100 N5        29.92S WCI  34
BIG SANDY*     LGT RAIN  40  40  97 CALM      29.93S
6HR MIN TEMP:  40; 6HR MAX TEMP:  45;

MOREHEAD APT*  CLOUDY    39  37  93 NW3       29.98F
$$

KYZ035-036-041-042-044-050-067-078-099-270700
...CENTRAL KENTUCKY...

CITY           SKY/WX    TMP DP  RH WIND       PRES   REMARKS
MT STERLING*   CLOUDY    37  36  93 N5        29.98S WCI  34
FLEMING/MASON* MOCLDY    36  34  93 W5        29.98S WCI  32
DANVILLE*      CLOUDY    37  36  93 N3        29.98F
RICHMOND*      MOCLDY    37  36  93 N5        29.96F WCI  34
LEXINGTON      MOCLDY    37  34  89 NW5       29.97F FOG     WCI  33
6HR MIN TEMP:  36; 6HR MAX TEMP:  43; 6HR PCP:  0.01;

FRANKFORT      CLOUDY    38  34  85 CALM      29.97S
6HR MIN TEMP:  38; 6HR MAX TEMP:  42; 6HR PCP:  0.01;

$$

KYZ091>093-OHZ055-061-077-WVZ005-015-034-035-042-270700
...SOUTHERN OHIO/WEST VIRGINIA...

CITY           SKY/WX    TMP DP  RH WIND       PRES   REMARKS
COVINGTON      MOCLDY    37  30  75 N9        29.97F WCI  30
COLUMBUS       PTCLDY    34  23  64 NW9       29.94F WCI  27
DAYTON         CLOUDY    35  25  66 N3        29.99R
WILMINGTON     MOCLDY    34  26  72 N9        29.96S WCI  27
HUNTINGTON     CLOUDY    40  35  83 NW5       29.95R
CHARLESTON     LGT RAIN  41  37  86 NW7       29.91R
PINEVILLE*     MIX PCPN  42  42 100 MISG      29.94R
BECKLEY        LGT RAIN  37  35  92 NW3       29.85F
BLUEFIELD      MIX PCPN  37  33  85 NW6       29.85S WCI  32
$$

VAZ002-007-008-TNZ017-027-036-066-071-270700
...SOUTHWEST VIRGINIA/EAST TENNESSEE...

CITY           SKY/WX    TMP DP  RH WIND       PRES   REMARKS
WISE*          MIX PCPN  36  36 100 N7        29.89S WCI  30
JONESVILLE*    CLOUDY    41  41 100 NW3       29.93F
ABINGDON*      DRIZZLE   42  40  92 N3        29.86R
BRISTOL        LGT RAIN  43  40  89 NW8       29.88R
KNOXVILLE      CLOUDY    44  41  89 N9        29.88F
OAK RIDGE      LGT RAIN  43  40  89 N7        29.90F
CROSSVILLE     CLOUDY    39  36  89 NE7G18    29.89F WCI  34
NASHVILLE      CLOUDY    41  36  82 NW12      29.99F
$$

...KEY TO REMARKS...
VSB - VISIBILITY IN MILES
WCI - WIND CHILL INDEX
HX  - HEAT INDEX

$$


USA.gov is the U.S. government's official web portal to all federal, state and local government web resources and services.